Wind_Speed
86 86 86 85 85 86 87 87 88 89 91 92 93 94 96 97 98 99 99 100 100 101 100 100 99 98 97 97 96 96 95 95 94 94 94 94 94 95 95 96 96 96 97 97 98 98 98 98 98 98 98 98 98 97 96 95 94 93 93 92 91 91 91 91 91 92 92 93 94 95 97 98 99 100 101 102 103 104 104 105 106 107 109 110 112 112
91 90 89 89 89 89 89 90 91 92 93 94 95 95 96 98 99 100 100 100 100 100 100 99 98 97 96 96 95 95 95 95 95 95 95 95 95 96 96 97 97 97 97 98 98 98 99 99 99 99 99 99 98 97 96 95 94 93 92 92 91 91 91 91 91 92 93 94 95 96 97 98 100 101 102 102 103 103 104 105 106 107 109 111 112 111
95 94 93 93 92 92 92 92 93 93 94 94 95 96 97 98 99 99 100 100 100 99 99 98 97 97 96 95 95 95 95 96 96 95 96 96 96 96 97 97 97 98 98 98 99 99 99 99 99 100 99 99 98 97 96 95 94 93 92 91 91 91 91 91 92 92 93 94 95 96 98 99 100 101 102 103 103 104 104 105 106 108 109 111 112 111
96 96 95 95 94 93 93 93 93 93 93 94 94 95 96 97 98 98 99 99 99 99 99 99 98 97 96 96 96 96 96 96 96 96 96 96 97 97 97 98 98 98 99 99 99 100 100 100 100 100 100 99 98 97 95 94 93 92 92 91 91 91 91 91 92 93 94 95 96 97 98 100 101 101 102 103 103 104 104 105 107 108 110 111 111 110
97 96 96 95 95 94 93 93 92 92 92 93 93 94 95 96 97 98 98 99 99 99 100 99 99 98 97 97 97 97 97 97 97 97 97 97 97 97 98 98 98 99 99 100 100 100 100 101 101 100 100 99 98 96 95 94 93 92 91 91 91 91 91 92 92 93 94 96 97 98 99 100 101 102 102 103 103 104 104 105 107 109 110 111 111 109
97 96 96 96 95 94 94 93 93 92 92 93 94 95 95 96 97 98 99 99 100 100 101 101 100 99 99 98 98 98 98 98 98 98 98 98 98 98 98 99 99 99 100 100 101 101 101 101 101 101 100 99 97 96 95 94 93 92 91 91 91 91 91 92 93 94 95 96 98 99 100 101 101 102 103 103 103 104 105 106 108 109 111 111 110 109
98 97 97 97 96 96 96 95 95 94 94 94 95 96 97 97 98 99 100 100 101 101 102 102 101 101 100 99 99 99 98 98 99 98 99 99 99 99 99 99 100 100 101 101 102 102 102 102 101 101 100 98 97 95 94 93 92 91 91 91 91 91 92 93 94 95 96 97 98 100 101 101 102 102 103 103 104 104 105 107 108 110 111 111 110 108
102 101 100 99 99 98 98 98 97 97 97 97 98 99 99 100 100 101 101 102 102 102 103 102 102 102 101 100 99 99 99 99 99 99 100 100 100 100 100 100 101 101 102 102 102 102 102 102 102 100 99 97 96 95 94 93 92 91 91 91 91 92 92 93 94 96 97 98 99 100 101 102 102 103 103 103 104 104 106 107 109 110 111 111 109 107
107 106 106 104 103 102 101 101 101 100 100 101 101 102 102 103 103 103 103 104 104 104 103 103 103 102 102 101 100 100 99 100 100 100 101 101 101 101 101 101 102 102 102 103 103 103 103 102 101 100 98 96 95 94 93 92 91 91 91 91 92 92 93 94 95 96 98 99 100 101 102 102 103 103 103 104 104 105 106 108 110 111 111 110 109 106
111 111 111 110 108 107 105 104 104 104 103 104 104 105 105 105 106 106 106 105 105 105 105 104 103 103 102 102 101 100 100 101 101 102 102 102 102 102 102 102 103 103 103 103 103 103 103 102 100 99 97 96 94 93 92 92 91 91 91 91 92 93 94 95 96 97 98 100 101 101 102 103 103 103 103 104 104 106 107 109 110 111 110 110 108 105
113 113 113 112 112 111 109 108 107 107 106 106 107 108 108 108 107 107 107 107 107 107 106 106 105 104 103 102 102 102 101 102 103 103 104 104 104 103 103 103 103 104 104 104 104 103 102 101 99 98 96 95 94 93 92 91 91 91 91 92 92 93 94 96 97 98 99 100 101 102 102 103 103 103 104 104 105 106 108 109 110 111 110 109 107 104
113 112 112 112 112 111 111 110 109 109 108 108 109 109 110 110 109 108 108 108 108 108 107 107 106 105 103 103 102 103 103 103 104 105 105 105 105 105 104 104 104 104 104 104 103 102 101 100 98 96 95 94 93 92 91 91 91 91 92 92 93 94 95 96 98 99 100 101 102 102 103 103 103 103 104 105 106 107 109 110 110 110 110 109 106 103
111 111 111 110 110 110 110 110 109 109 109 109 109 110 110 110 110 109 108 108 108 108 107 107 106 106 105 104 103 104 104 105 106 106 106 106 106 106 105 105 104 104 104 103 102 101 100 98 96 95 94 93 92 92 91 91 91 91 92 93 94 95 96 97 99 100 101 102 102 103 103 103 103 104 104 105 106 108 109 110 110 110 109 108 106 102
109 109 109 109 109 108 108 108 107 108 108 108 109 109 109 109 109 108 107 107 107 107 107 107 106 106 106 105 105 105 106 106 107 107 107 107 107 106 105 105 104 103 103 102 101 99 98 96 95 94 93 92 92 91 91 91 92 92 93 94 95 96 97 98 99 100 101 102 102 103 103 103 104 104 105 106 107 109 110 110 110 110 109 107 105 100
107 107 107 107 107 106 106 105 105 105 106 106 107 107 107 107 107 106 106 106 106 107 107 106 106 106 106 106 107 107 107 108 108 108 108 107 107 106 105 104 103 102 101 100 99 98 96 95 94 93 92 92 91 91 91 92 92 93 94 95 96 97 98 99 100 101 102 102 103 103 103 103 104 104 105 107 108 109 110 110 110 109 108 107 104 99
105 105 105 105 104 104 103 102 102 103 103 104 105 105 105 105 105 105 105 105 106 106 106 106 107 107 107 108 108 108 108 108 108 108 107 107 106 105 104 102 101 100 99 98 97 96 95 94 93 92 92 91 91 92 92 92 93 94 95 96 97 98 99 100 101 102 102 103 103 103 103 104 104 105 106 108 109 110 110 110 110 109 108 106 102 97
102 102 102 102 102 101 101 100 100 101 101 102 103 104 104 104 104 104 104 105 105 106 106 107 107 107 108 109 109 109 108 107 107 107 106 105 104 103 102 100 99 98 98 97 96 95 94 93 92 92 91 91 92 92 92 93 94 95 96 97 98 99 100 101 102 102 103 103 103 103 104 104 105 106 107 108 109 110 110 110 109 109 107 105 101 95
101 101 101 100 100 99 99 99 99 99 100 101 102 102 103 103 103 103 104 104 105 106 106 107 107 107 108 108 109 108 107 106 105 105 104 103 103 102 100 99 98 97 96 95 94 93 92 92 91 91 91 92 92 93 93 94 95 96 96 98 99 100 101 101 102 102 103 103 103 104 104 105 106 107 108 109 109 110 110 109 109 108 107 103 99 92
100 100 100 100 100 100 99 99 99 100 100 101 101 102 102 102 103 103 103 104 104 105 106 106 106 107 107 107 107 107 106 104 103 102 102 101 101 100 99 98 96 96 95 94 93 92 92 91 91 92 92 92 93 93 94 95 96 97 97 98 100 100 101 102 102 103 103 103 104 104 105 106 107 108 108 109 109 109 109 109 109 108 106 102 96 89
102 102 102 102 103 102 102 102 102 102 102 102 102 102 102 103 103 103 103 104 104 105 105 105 105 106 106 105 105 105 104 103 102 101 101 100 99 99 98 96 95 94 93 92 92 91 91 91 92 92 92 93 94 94 95 96 97 97 99 99 100 101 102 102 103 103 103 104 104 105 105 106 107 108 109 109 109 109 109 109 108 107 104 100 94 86
105 105 106 106 106 106 106 107 106 106 106 105 104 104 104 104 104 104 104 104 104 104 104 104 104 105 104 104 104 103 103 101 100 100 99 99 98 97 96 95 93 92 91 91 91 91 91 92 92 93 93 94 94 95 96 97 98 98 99 100 101 102 102 103 103 103 104 104 105 105 106 107 108 108 109 109 109 109 109 109 108 106 103 97 91 83
106 107 107 107 107 107 108 108 108 108 107 106 105 105 104 104 104 104 104 104 104 104 103 103 103 103 103 102 102 102 101 100 99 98 97 96 96 95 94 93 91 91 91 91 91 92 92 92 93 93 94 95 95 96 97 98 99 99 100 101 102 103 103 103 104 104 104 105 105 106 107 108 108 109 109 109 109 109 109 109 107 105 101 95 87 79
105 105 105 105 105 106 106 106 106 105 105 104 103 103 102 102 102 102 102 102 102 102 102 101 101 101 101 100 100 100 99 98 97 95 94 93 93 93 93 91 91 90 91 91 92 92 93 93 94 94 95 96 96 97 98 99 100 101 101 102 103 103 103 104 104 104 105 105 106 107 107 108 109 109 109 109 109 109 109 108 106 103 98 91 83 75
102 103 103 103 103 103 103 102 102 102 101 100 100 99 99 99 98 98 98 98 98 98 98 98 98 98 98 97 97 96 96 95 94 93 92 91 92 92 92 91 90 91 91 92 92 93 93 94 95 95 96 97 97 98 99 100 101 102 102 103 103 104 104 104 104 105 105 106 106 107 108 108 109 109 109 109 109 109 109 107 105 101 95 88 79 71
98 99 99 99 99 99 99 99 99 98 98 97 96 96 96 95 95 95 95 95 95 95 95 94 94 94 94 94 93 93 93 92 91 90 90 90 91 91 91 91 91 91 92 93 93 93 94 95 96 97 97 98 99 99 100 101 102 103 103 104 104 104 104 104 105 105 106 106 107 108 108 109 109 109 109 109 109 109 108 106 103 98 91 83 75 68
96 96 96 96 96 96 96 96 95 95 94 93 93 92 92 92 91 91 91 91 91 91 90 90 90 90 91 90 90 90 91 91 90 90 90 90 91 92 92 92 92 92 93 94 94 95 95 96 97 98 98 99 100 101 101 102 103 103 104 104 104 104 105 105 105 106 106 107 108 108 109 109 110 110 110 109 109 108 107 105 101 95 87 79 71 64
95 95 95 94 94 94 94 94 93 93 92 91 90 90 89 89 88 88 88 89 88 88 88 88 88 88 89 89 89 90 90 90 90 90 91 91 91 92 93 93 93 93 94 95 95 96 97 97 98 99 100 100 101 102 102 103 103 104 104 104 105 105 105 105 106 106 107 108 109 109 110 110 110 110 109 109 109 108 106 103 97 90 82 74 67 61
95 95 95 95 94 94 94 93 93 92 91 90 90 89 88 88 87 87 88 88 88 88 87 88 88 88 88 89 89 90 90 91 91 92 92 92 92 93 94 94 94 94 95 96 97 98 98 99 100 100 101 102 102 103 103 104 104 104 104 105 105 105 105 106 107 107 108 109 109 110 110 110 110 110 109 109 108 107 104 100 93 86 77 70 63 58
98 97 96 96 95 95 94 94 93 92 92 91 90 90 89 89 88 88 89 89 89 88 88 89 89 89 89 90 90 91 91 92 92 93 93 93 94 95 95 95 96 96 96 97 98 99 100 100 101 101 102 102 103 103 104 104 104 104 105 105 105 105 106 107 108 109 109 110 110 110 110 110 110 109 109 108 107 105 102 96 88 80 73 66 60 56
100 100 99 98 97 96 96 95 95 94 93 92 92 91 91 91 90 90 90 90 90 90 90 90 90 91 91 91 91 92 92 93 94 94 93 94 95 96 97 97 97 98 98 98 99 100 101 102 102 102 103 103 104 104 104 104 104 105 105 105 106 106 107 108 109 110 110 110 110 110 110 110 109 109 109 108 106 103 98 91 83 75 68 62 57 54
104 103 102 101 100 99 98 97 96 96 95 94 94 93 93 92 92 92 92 91 91 91 91 92 92 92 92 92 92 93 94 95 95 95 95 95 96 97 98 98 99 99 100 100 100 101 102 103 104 104 104 104 104 104 104 104 105 105 105 106 107 108 108 109 110 110 111 111 110 110 110 109 109 109 108 107 104 100 93 86 78 70 64 59 55 52
109 107 105 104 103 101 100 99 98 98 97 96 96 95 95 94 94 94 93 93 93 93 93 93 94 94 94 94 94 95 96 96 97 96 96 97 98 99 99 100 100 101 101 101 101 102 103 104 104 104 104 104 104 104 105 105 105 106 106 107 108 109 110 111 111 111 111 111 110 110 109 109 109 108 107 105 101 95 88 80 73 66 61 56 53 50
115 113 111 108 106 105 103 102 101 100 99 98 98 97 97 96 96 95 95 95 95 95 95 95 95 95 96 96 96 96 97 98 98 98 98 98 99 100 101 101 101 102 102 103 103 103 103 104 104 105 105 105 105 105 105 106 107 107 108 109 109 110 111 111 111 111 110 110 110 109 109 109 108 107 105 102 96 89 82 75 68 62 58 54 51 48
120 119 117 114 112 110 108 106 104 103 102 101 100 99 99 98 98 97 97 97 97 97 97 97 97 97 97 97 98 98 99 99 99 99 100 100 101 102 102 103 103 103 103 104 104 104 104 104 105 105 105 106 106 107 107 108 108 109 110 110 111 111 111 111 111 110 110 109 109 109 108 108 107 106 102 97 91 83 76 69 64 59 55 52 49 46
123 122 121 120 118 116 114 112 110 108 106 105 103 102 101 100 100 99 99 99 99 99 98 98 98 98 99 99 99 100 100 101 101 101 101 102 102 103 103 104 104 104 104 104 105 105 105 106 106 106 106 107 108 109 110 110 110 111 111 112 112 111 111 111 110 109 109 108 108 108 108 107 106 103 98 92 85 77 71 65 60 56 53 50 47 44
123 123 123 122 121 121 120 118 117 115 113 111 109 107 105 104 102 102 101 101 101 100 100 100 100 100 100 100 101 101 102 102 102 103 103 103 104 104 104 105 105 105 105 105 106 106 107 107 108 108 109 110 110 111 112 112 112 112 112 112 111 111 110 109 109 108 108 108 108 107 107 105 103 98 92 85 78 72 66 61 57 53 51 48 45 43
122 122 122 122 122 121 121 121 121 120 119 118 116 114 112 110 108 107 106 105 104 104 103 103 102 102 102 102 102 103 103 104 104 104 105 105 106 106 106 107 107 107 107 108 108 109 110 110 111 112 112 112 112 113 113 113 113 112 111 111 110 109 109 108 108 107 107 107 107 106 105 103 98 93 86 79 73 67 62 58 54 51 49 46 44 41
122 122 122 121 121 121 121 121 121 121 121 121 120 120 119 118 116 115 113 112 111 110 109 108 107 107 106 106 106 107 107 107 108 108 108 109 109 109 110 110 111 111 111 112 112 113 113 113 113 114 114 114 114 113 113 112 111 111 110 110 109 108 107 107 107 107 106 106 106 104 102 98 92 86 79 73 67 63 58 55 52 49 47 44 42 40
122 122 121 121 121 120 120 120 120 120 120 120 120 120 121 121 121 121 120 119 119 118 117 116 115 114 114 113 113 113 113 113 113 114 114 114 115 115 115 115 115 116 116 116 115 115 115 115 115 115 114 114 113 112 112 111 110 109 108 108 107 107 107 106 106 106 106 105 104 101 97 92 86 79 73 68 63 59 55 52 50 47 45 43 41 39
122 122 122 121 121 120 120 120 120 120 120 119 119 119 119 120 120 121 121 122 122 122 122 122 122 121 121 121 121 120 120 120 120 120 120 120 120 119 119 119 119 118 118 118 117 116 116 115 115 114 113 112 111 110 110 109 108 107 107 106 106 106 106 106 105 105 104 103 100 96 91 85 79 73 68 63 59 56 53 50 48 46 43 41 40 38
122 122 122 122 121 121 121 120 120 120 120 119 119 119 119 119 119 119 120 120 121 121 122 122 122 123 123 123 124 124 123 123 123 123 122 122 122 121 120 120 119 119 118 117 117 116 115 114 113 112 111 110 109 108 107 107 107 106 106 105 105 105 105 105 104 103 101 99 95 90 84 78 73 68 64 60 56 53 51 48 46 44 42 40 39 37
118 120 121 121 121 121 121 121 121 120 120 120 119 119 119 119 119 119 119 119 119 119 120 120 120 121 121 122 122 122 122 122 122 122 122 121 121 120 119 118 118 117 116 115 115 114 113 112 111 110 109 108 107 106 106 106 106 105 105 104 104 104 104 103 102 100 97 93 89 83 78 72 68 63 60 56 53 51 49 46 44 43 41 39 38 37
110 112 115 117 118 119 120 121 121 121 121 120 120 120 120 119 119 119 119 119 119 119 119 119 119 119 119 119 120 120 120 120 120 120 119 119 118 118 117 116 116 115 114 113 112 112 111 110 109 108 107 106 106 105 105 105 105 104 104 103 103 102 101 100 99 96 92 87 82 76 71 67 63 59 56 53 51 49 47 45 43 41 40 38 37 36
100 103 105 108 111 114 116 118 120 120 121 121 121 121 121 120 120 119 119 119 119 119 119 118 118 118 118 118 119 119 119 118 118 118 117 117 117 116 115 115 114 113 113 111 111 110 109 108 108 107 106 105 104 104 103 103 103 102 102 102 101 99 98 96 94 90 85 80 75 70 66 62 59 56 53 51 49 47 45 43 42 40 39 38 37 36
94 95 97 100 102 105 109 112 114 116 118 119 120 121 121 121 121 121 121 120 120 120 119 119 118 118 118 118 118 118 118 118 117 117 116 116 115 115 114 113 112 112 111 110 109 108 107 106 106 105 105 104 103 102 102 101 101 100 100 100 98 97 94 92 88 83 78 73 69 65 62 59 56 53 51 49 47 45 44 42 41 39 38 37 36 36
91 92 93 94 95 98 100 103 105 108 111 114 116 118 119 120 121 121 122 122 121 121 121 120 119 119 119 119 119 118 118 117 117 116 116 115 115 114 113 112 111 111 110 109 108 107 106 105 104 104 103 102 102 101 100 99 98 98 97 96 95 92 89 85 81 76 71 68 64 61 58 56 53 51 49 47 45 44 42 41 40 39 38 37 36 35
90 90 90 90 91 92 94 95 97 100 103 106 109 112 114 116 118 120 121 121 122 122 121 121 121 120 120 119 119 118 118 117 117 116 115 115 114 113 112 112 111 110 109 108 107 106 105 104 103 102 101 100 99 99 98 97 96 95 94 92 90 86 82 78 74 70 66 63 60 58 55 53 51 49 47 45 44 42 41 40 39 38 37 36 36 35
89 89 89 89 89 89 90 91 92 94 97 99 102 104 107 110 112 115 117 118 119 120 120 121 121 121 120 120 119 118 117 117 116 115 115 114 113 112 112 111 110 109 108 107 105 104 103 102 101 100 99 98 97 96 95 94 93 91 89 87 83 79 75 71 68 65 62 59 57 55 53 51 48 47 45 43 42 41 40 39 38 37 36 36 35 35
87 87 87 87 88 88 88 89 90 91 92 94 96 98 101 103 105 108 110 112 114 116 117 118 119 119 119 118 118 117 116 115 115 114 113 112 112 111 110 109 108 107 106 105 104 103 102 101 100 99 97 95 94 93 92 91 89 86 83 80 76 72 69 66 63 61 58 56 55 52 50 48 47 45 43 42 41 40 39 38 37 37 36 35 35 35
87 86 86 86 87 87 87 87 88 89 90 91 92 94 95 97 99 101 103 105 108 110 111 113 114 115 116 115 115 114 113 113 112 111 110 110 109 108 107 106 105 104 103 102 101 100 98 97 97 96 95 93 91 88 87 85 83 80 76 73 69 66 64 62 59 58 56 54 52 50 48 47 45 43 42 41 40 39 39 38 37 36 35 35 35 35
87 86 86 86 86 86 86 87 87 87 88 88 89 90 92 93 95 96 98 100 102 103 105 107 108 109 110 110 110 110 109 109 108 108 107 106 106 104 103 103 101 100 99 98 97 96 95 93 92 91 90 89 86 84 81 78 76 73 69 67 64 62 60 58 57 55 53 52 50 48 46 45 44 42 41 40 39 39 38 37 36 36 35 35 34 35
Wind_Direction
277 278 278 279 279 280 280 280 281 281 281 282 282 283 284 284 285 286 287 288 289 290 290 291 291 292 292 293 294 295 295 296 297 298 299 299 300 300 301 302 303 304 305 306 307 308 309 310 311 312 313 313 314 314 315 315 316 316 317 318 319 320 320 321 321 322 322 323 323 323 324 324 325 325 326 326 327 327 328 328 329 330 332 333 335 336
276 276 277 278 279 279 280 280 281 281 282 282 283 284 284 285 286 287 288 288 289 289 290 290 291 291 292 293 294 294 295 296 297 297 298 299 299 300 301 302 303 304 305 306 307 308 309 310 311 311 312 313 313 313 314 314 315 315 317 317 318 319 320 320 320 321 321 322 322 323 323 324 324 325 325 325 326 326 327 328 329 330 331 333 334 336
274 275 276 277 278 279 280 280 281 282 282 283 284 284 285 285 286 287 287 288 288 289 289 290 290 291 292 292 293 294 295 295 296 297 298 298 299 299 300 302 303 304 305 306 307 307 308 309 310 311 311 312 312 312 313 313 314 315 316 317 318 319 319 319 320 320 321 321 322 322 323 323 324 324 324 325 325 326 326 327 328 329 331 332 334 335
272 274 275 276 277 278 279 280 281 282 282 283 284 284 285 285 286 286 287 287 287 288 288 289 290 291 291 292 293 294 294 295 296 296 297 298 298 299 300 301 303 304 305 305 306 307 307 308 309 310 310 311 311 311 312 313 313 314 315 317 317 318 318 319 319 319 320 320 321 321 322 322 323 323 324 324 325 325 326 327 328 329 330 332 333 335
271 272 273 274 276 277 278 279 280 281 282 282 283 283 284 284 285 285 286 286 287 287 288 289 289 290 291 292 292 293 294 295 295 296 297 297 298 299 300 301 302 303 304 304 305 306 306 307 308 309 309 310 310 311 311 312 313 314 315 316 317 317 317 318 318 319 319 320 320 321 321 322 322 323 323 323 324 325 325 326 327 328 330 331 333 334
270 271 272 273 274 275 276 278 279 280 280 281 281 282 282 283 283 284 285 285 286 287 288 288 289 290 291 291 292 293 293 294 295 295 296 296 297 298 299 300 301 302 303 304 304 305 306 306 307 308 308 309 309 310 311 311 312 313 314 315 316 316 317 317 317 318 318 319 319 320 321 321 321 322 322 323 323 324 325 326 327 328 329 331 332 334
269 270 271 271 272 273 274 275 276 277 278 279 280 280 281 282 282 283 284 285 285 286 287 288 288 289 290 291 291 292 293 293 294 294 295 296 296 297 299 300 301 301 302 303 303 304 305 305 306 307 307 308 308 309 310 311 312 313 314 314 315 315 316 316 317 317 318 318 319 319 320 320 321 321 321 322 323 323 324 325 326 328 329 331 332 333
268 269 270 270 271 271 272 273 274 275 276 277 278 279 280 280 281 282 283 284 284 285 286 287 288 288 289 290 291 291 292 292 293 293 294 295 296 297 298 299 300 301 301 302 303 303 304 305 305 306 306 307 308 309 310 310 311 312 313 314 314 315 315 315 316 316 317 317 318 318 319 319 320 320 321 321 322 323 323 324 326 327 329 330 331 332
267 268 269 269 270 271 271 272 272 273 274 275 276 277 278 279 280 281 282 283 284 284 285 286 287 288 288 289 290 290 291 291 292 292 293 294 295 296 297 298 299 300 300 301 302 302 303 304 304 305 306 306 307 308 309 310 311 312 312 313 313 314 314 315 315 316 316 317 317 318 318 319 319 319 320 320 321 322 323 324 325 327 328 330 331 332
266 267 268 269 269 270 271 271 272 272 273 274 275 276 277 278 279 280 281 282 282 283 284 285 286 287 287 288 289 289 290 290 291 291 292 293 294 295 296 297 298 299 300 300 301 302 302 303 303 304 305 306 307 308 309 309 310 311 311 312 312 313 313 314 314 315 315 316 316 317 317 318 318 319 319 320 320 321 322 324 325 326 328 329 330 331
267 267 267 268 268 269 270 271 271 272 273 274 274 275 276 277 278 279 280 280 281 282 283 284 285 285 286 287 288 288 289 289 290 291 292 293 294 295 296 297 297 298 299 299 300 301 301 302 303 303 304 305 306 307 308 309 309 310 310 311 311 312 312 313 313 314 314 315 315 316 316 317 317 318 318 319 320 321 322 323 324 326 327 329 330 330
268 268 268 268 268 269 270 270 271 272 273 273 274 275 275 276 277 277 278 279 280 281 282 283 283 284 285 286 286 287 288 288 289 290 291 292 293 294 295 296 296 297 298 298 299 300 300 301 302 303 304 305 306 307 307 308 309 309 309 310 310 311 311 312 312 313 313 314 314 315 315 316 316 317 318 318 319 320 322 323 324 325 327 328 329 329
269 269 269 269 269 269 270 271 271 272 273 273 274 274 275 275 276 277 278 278 279 280 281 282 282 283 284 285 285 286 286 287 288 289 290 291 292 293 294 295 296 296 297 297 298 299 300 301 302 303 304 305 306 306 307 307 308 308 308 309 309 310 310 311 311 312 313 313 314 314 315 315 316 316 317 318 319 320 321 322 324 325 326 328 328 329
269 269 269 270 270 270 270 271 272 272 273 273 274 274 275 275 276 277 277 278 279 279 280 281 281 282 283 284 284 285 285 286 287 288 289 290 291 292 293 294 295 295 296 297 297 298 299 300 301 302 303 304 305 305 306 306 307 307 307 308 308 309 309 310 311 311 312 312 313 313 314 314 315 316 316 317 318 320 321 322 323 325 326 327 328 328
269 270 270 270 270 271 271 271 272 272 272 273 273 274 274 275 276 276 277 278 278 279 279 280 281 281 282 283 283 284 285 286 287 288 289 290 291 292 292 293 294 294 295 296 297 298 299 300 301 302 303 304 304 304 305 305 306 306 306 307 307 308 309 309 310 310 311 311 312 312 313 313 314 315 316 317 318 319 320 321 323 324 326 327 327 327
269 269 270 270 270 271 271 271 271 272 272 273 273 274 274 275 275 276 277 277 278 278 279 280 280 281 281 282 283 283 284 285 286 287 289 289 290 291 292 292 293 294 295 295 296 298 299 300 301 302 302 303 303 303 304 304 305 305 305 306 307 307 308 308 309 309 310 311 311 312 312 313 313 314 315 316 318 319 320 321 322 324 325 326 326 326
268 269 269 269 270 270 270 270 271 271 271 272 273 273 274 275 275 276 276 277 277 278 278 279 280 280 281 282 282 283 284 285 286 287 288 289 290 290 291 292 293 293 294 295 296 297 298 299 300 301 301 302 302 302 303 303 304 304 304 305 306 306 307 307 308 309 309 310 310 311 311 312 313 314 315 316 317 318 319 321 322 323 324 325 325 324
267 268 268 268 269 269 269 270 270 270 271 272 272 273 274 274 275 275 276 276 277 277 278 279 279 280 281 281 282 283 284 285 286 287 288 288 289 290 291 292 292 293 294 295 296 297 298 299 299 300 300 301 301 301 302 302 303 303 304 304 305 305 306 307 307 308 308 309 309 310 311 311 312 313 314 316 317 318 319 320 322 323 324 324 324 323
266 266 267 267 268 268 268 269 269 270 270 271 272 273 273 274 275 275 275 276 276 277 278 278 279 280 281 281 282 283 284 285 286 287 288 288 289 290 291 291 292 293 294 295 296 297 297 298 299 299 299 300 300 300 301 301 302 302 302 303 304 304 305 306 306 307 307 308 309 309 310 311 312 313 314 315 316 317 318 320 321 322 323 323 323 322
265 266 266 266 267 267 268 268 268 269 270 271 272 272 273 274 274 275 275 276 276 277 278 278 279 280 281 282 282 283 284 285 286 287 287 288 289 290 290 291 292 293 294 294 295 296 297 297 297 298 298 299 299 299 300 300 301 301 302 302 303 304 304 305 305 306 307 307 308 309 310 311 312 313 314 315 316 317 318 319 321 322 322 322 322 320
266 266 266 266 267 267 267 268 268 269 270 270 271 272 273 273 274 274 275 276 276 277 278 278 279 280 281 282 282 283 284 285 286 286 287 288 289 289 290 291 292 292 293 294 294 295 295 296 296 297 297 297 298 298 299 299 300 300 301 301 302 303 303 304 305 305 306 307 307 308 309 310 311 312 313 314 315 316 318 319 320 321 322 321 320 319
269 268 268 268 268 268 268 268 269 269 270 271 272 272 273 273 274 274 275 276 276 277 278 278 279 280 281 282 282 283 284 285 285 286 287 288 288 289 290 290 291 291 292 293 293 294 294 295 295 296 296 296 297 297 298 298 299 299 300 300 301 302 302 303 304 304 305 306 307 308 309 310 311 312 313 314 315 316 317 319 320 320 320 320 319 317
272 272 271 271 271 270 270 271 271 271 272 272 273 273 273 274 274 275 275 276 277 277 278 279 279 280 281 281 282 283 284 284 285 286 286 287 287 288 289 289 290 290 291 291 292 293 293 294 294 295 295 295 296 296 297 297 298 298 299 300 300 301 302 302 303 304 304 305 306 307 308 309 310 311 312 313 314 316 317 318 319 320 319 318 317 315
275 275 275 274 274 274 274 274 274 274 274 275 275 275 275 276 276 276 276 277 277 278 278 279 280 280 281 281 282 283 283 284 285 285 286 286 286 287 288 288 289 289 290 290 291 292 292 293 293 293 294 295 295 296 296 297 297 298 298 299 299 300 301 301 302 303 304 305 306 307 308 309 310 311 312 313 314 315 317 318 319 319 318 317 315 313
276 276 276 276 276 276 276 276 277 277 277 277 277 277 277 278 278 278 278 278 278 279 279 279 280 280 280 281 281 282 282 283 284 284 284 284 285 286 286 287 287 288 289 289 290 290 291 291 292 293 293 294 294 295 295 296 296 297 297 298 299 299 300 301 302 302 303 304 305 307 308 309 310 310 311 313 314 315 316 317 318 317 316 315 313 311
274 275 275 275 276 276 276 277 277 277 278 278 278 278 278 278 278 278 278 278 278 278 278 279 279 279 280 280 280 281 281 282 282 282 283 283 284 284 285 286 286 287 287 288 289 289 290 290 291 292 292 293 293 294 294 295 295 296 296 297 298 298 299 300 301 302 303 304 305 306 307 308 309 310 311 312 313 315 316 317 317 316 315 313 311 309
272 272 273 273 274 274 275 275 276 276 276 277 277 277 277 277 277 277 277 277 277 277 277 277 277 278 278 278 279 279 280 280 281 281 281 282 282 283 284 284 285 286 286 287 287 288 289 289 290 291 291 292 292 293 293 294 295 295 296 296 297 298 299 300 301 302 303 304 305 306 307 308 309 310 311 312 313 314 315 316 315 314 313 311 309 306
269 269 270 270 271 272 273 273 274 274 275 275 275 275 275 275 275 275 275 275 275 275 275 276 276 276 277 277 277 278 278 279 279 280 280 281 281 282 282 283 284 284 285 286 286 287 288 288 289 290 291 291 292 292 293 293 294 294 295 296 296 297 298 299 300 301 302 303 304 305 306 307 308 309 310 312 313 314 315 314 314 313 311 309 307 304
266 267 267 268 269 270 270 271 272 272 272 272 273 273 273 273 273 273 273 274 274 274 274 274 274 275 275 275 276 277 277 277 278 278 279 279 280 281 281 282 283 283 284 285 286 286 287 288 288 289 290 290 291 291 292 292 293 294 294 295 296 297 298 299 300 301 302 303 304 305 306 307 308 309 310 311 313 313 314 313 312 311 309 307 304 302
264 265 265 266 267 268 268 269 269 270 270 270 270 271 271 271 271 271 272 272 272 272 273 273 273 274 274 274 275 275 276 276 277 277 278 278 279 280 281 281 282 282 283 284 285 285 286 287 288 288 289 289 290 290 291 292 292 293 294 295 296 297 298 299 300 301 302 303 303 304 305 306 307 309 310 311 312 312 312 311 310 309 307 304 302 300
262 263 264 264 265 266 266 267 267 268 268 268 269 269 269 270 270 270 270 271 271 271 271 272 272 272 273 273 274 274 274 275 276 277 277 277 278 279 279 280 281 282 282 283 283 284 285 286 287 287 288 288 289 289 290 291 292 292 293 294 295 296 297 298 299 300 301 302 303 304 305 306 307 308 310 311 311 311 311 310 308 306 304 302 300 298
260 261 262 263 263 264 265 265 265 266 266 267 267 267 268 268 268 269 269 269 270 270 270 271 271 272 272 272 272 273 274 274 275 276 276 276 277 278 279 279 280 281 282 282 283 283 284 285 286 286 287 287 288 289 289 290 291 292 293 294 295 296 297 298 299 300 301 302 302 303 304 306 307 308 309 310 310 310 309 307 306 304 302 300 298 296
258 258 259 260 261 262 263 263 264 264 264 265 265 266 266 267 267 267 268 268 268 269 269 270 270 271 271 271 272 272 273 273 274 275 275 275 276 277 278 278 279 280 281 281 282 282 283 284 285 285 286 287 287 288 289 290 291 292 293 294 295 296 297 298 298 299 300 301 302 303 304 305 307 308 309 309 309 308 307 305 304 302 300 298 296 293
258 257 257 258 258 259 260 261 261 262 263 263 264 264 265 265 266 266 266 267 267 268 268 268 269 269 270 270 271 271 272 273 273 274 274 274 275 276 277 277 278 279 280 280 281 282 282 283 284 284 285 286 287 288 289 290 290 291 292 293 294 295 296 297 298 299 300 301 302 303 304 305 306 307 308 308 307 306 305 303 301 300 298 296 293 291
259 259 258 258 257 257 258 258 259 260 260 261 262 263 263 264 264 265 265 266 266 266 267 267 268 268 269 269 270 270 271 272 272 273 273 274 274 275 276 277 277 278 279 279 280 281 281 282 283 284 285 285 286 287 288 289 290 291 292 293 294 295 296 297 297 298 299 300 301 303 304 305 306 307 307 306 305 304 302 301 299 297 295 293 291 288
260 260 259 259 258 258 257 257 257 258 258 259 260 261 261 262 263 263 264 264 265 265 266 266 267 267 268 268 269 269 270 271 272 272 272 273 273 274 275 276 276 277 278 278 279 280 281 282 283 283 284 285 286 287 288 289 290 291 292 293 293 294 295 296 297 298 299 300 301 302 303 305 305 306 305 304 303 301 300 298 297 295 293 291 289 286
260 260 260 260 260 259 259 258 258 258 258 258 258 259 259 260 261 261 262 263 263 264 264 265 266 266 267 267 268 268 269 270 271 271 272 272 273 273 274 275 276 276 277 278 279 280 280 281 282 283 284 285 286 287 288 289 290 290 291 292 293 294 295 296 297 298 299 300 301 302 303 304 304 304 303 302 300 299 298 296 294 293 291 289 286 283
260 260 261 261 261 260 260 260 260 259 259 259 258 258 258 259 259 260 260 261 262 262 263 264 264 265 266 266 267 267 268 269 269 270 271 272 272 273 274 274 275 276 277 278 278 279 280 281 282 283 284 285 285 286 287 288 289 290 291 292 293 293 294 295 296 297 299 300 301 302 303 303 303 302 301 299 298 297 295 294 292 291 289 286 284 281
260 260 261 261 261 261 261 261 261 261 261 260 260 260 260 259 259 259 260 260 260 261 262 262 263 264 264 265 266 266 267 268 269 269 270 271 272 272 273 274 275 276 276 277 278 279 280 281 282 282 283 284 285 286 287 288 289 290 291 291 292 293 294 295 296 297 298 299 300 301 302 301 301 300 298 297 296 295 293 292 290 289 286 284 281 278
260 260 261 261 261 261 261 261 261 261 262 261 261 261 261 261 261 261 260 261 261 261 261 262 262 263 264 264 265 266 267 267 268 269 270 271 271 272 273 274 274 275 276 277 278 279 279 280 281 282 283 284 285 286 287 288 288 289 290 291 292 293 294 295 296 297 298 299 300 300 300 299 298 297 296 295 294 292 291 290 288 286 284 281 278 276
259 259 260 260 261 261 261 261 262 262 262 262 262 262 262 262 262 261 262 262 262 262 262 262 263 263 264 264 265 266 266 267 268 269 269 270 271 272 273 273 274 275 276 276 277 278 279 280 281 282 283 284 285 285 286 287 288 289 290 291 292 293 294 295 296 297 298 298 299 299 298 297 296 294 293 292 291 290 289 287 286 284 282 279 276 273
259 259 259 259 260 260 261 261 261 262 262 262 262 262 262 262 262 262 262 262 262 262 263 263 263 264 264 265 265 266 266 267 268 268 269 270 271 271 272 273 274 274 275 276 277 278 279 280 281 281 282 283 284 285 286 287 288 289 290 291 291 292 293 294 295 296 297 297 297 297 296 294 293 292 291 290 289 288 287 285 283 281 279 277 274 271
259 259 259 259 259 259 260 260 261 261 261 261 261 261 261 262 262 262 262 262 262 263 263 263 263 264 264 265 265 266 266 267 267 268 269 269 270 271 272 272 273 274 275 276 277 278 278 279 280 281 282 283 284 285 286 287 288 288 289 290 291 292 293 294 295 296 296 296 295 294 293 292 291 290 289 288 287 286 284 283 281 279 277 274 271 269
261 260 260 259 259 259 259 259 259 260 260 260 261 261 261 261 261 262 262 262 262 262 263 263 263 264 264 264 265 265 266 267 267 268 268 269 270 271 271 272 273 274 275 275 276 277 278 279 280 281 282 283 284 285 286 286 287 288 289 290 291 292 293 293 294 295 294 294 292 291 290 289 289 288 287 286 285 283 282 280 278 277 274 272 269 267
262 261 261 260 260 259 259 259 259 259 259 259 260 260 260 261 261 261 261 261 262 262 262 263 263 263 263 264 264 265 266 266 267 268 268 269 270 270 271 272 273 274 274 275 276 277 278 279 280 281 282 283 284 284 285 286 287 288 289 290 290 291 292 293 293 293 292 291 290 289 288 287 286 286 285 283 282 281 279 278 276 274 272 270 268 265
262 261 261 261 260 260 260 259 259 259 259 259 259 259 259 260 260 260 260 261 261 261 262 262 262 263 263 264 264 265 265 266 267 268 268 269 270 270 271 272 273 274 274 275 276 277 278 279 280 281 282 282 283 284 285 286 287 287 288 289 290 291 291 292 291 290 289 288 287 286 286 285 284 283 282 281 280 279 277 276 274 272 270 268 266 264
261 261 261 261 261 261 261 260 260 260 259 259 259 259 259 259 259 260 260 260 260 261 261 262 262 262 263 263 264 265 265 266 267 267 268 269 270 270 271 272 273 273 274 275 276 277 278 278 279 280 281 282 283 284 284 285 286 287 288 289 290 290 290 289 289 288 287 286 285 284 284 283 282 281 280 279 278 277 275 274 272 270 268 266 265 263
261 261 261 261 261 261 261 261 261 260 260 260 259 259 259 259 259 259 259 260 260 260 261 261 262 262 262 263 264 264 265 266 266 267 268 269 269 270 271 272 272 273 274 275 276 276 277 278 279 280 281 281 282 283 284 285 286 287 287 288 288 288 288 287 286 285 284 283 283 282 282 281 280 279 278 277 276 275 273 272 270 268 267 265 263 262
261 261 262 262 261 261 261 261 261 260 260 260 260 259 259 259 259 259 259 260 260 260 260 261 261 262 262 263 263 264 265 265 266 267 268 268 269 270 271 271 272 273 274 274 275 276 277 278 278 279 280 281 282 283 284 285 285 286 287 287 286 286 285 284 283 283 282 281 281 280 280 279 278 277 276 275 274 273 271 270 268 267 265 264 262 261
262 262 262 262 261 261 261 261 261 260 260 260 260 260 260 260 260 259 259 260 260 260 260 260 261 261 262 262 263 264 264 265 266 266 267 268 269 269 270 271 272 272 273 274 275 276 276 277 278 279 280 280 281 282 283 284 285 285 285 285 284 283 282 282 281 280 280 279 279 278 278 277 276 275 274 273 272 271 270 268 267 265 264 262 261 259
262 262 262 262 261 261 261 261 260 260 260 260 260 260 260 260 260 260 260 260 260 260 260 260 261 261 261 262 263 263 264 265 265 266 267 267 268 269 270 270 271 272 273 273 274 275 276 277 278 279 280 280 281 282 283 283 284 283 283 282 281 280 280 279 279 278 278 277 277 276 276 275 274 273 272 271 270 269 268 267 265 264 263 261 260 259
Height
10635 10634 10633 10635 10636 10633 10630 10628 10629 10629 10628 10625 10623 10622 10621 10619 10618 10617 10616 10615 10614 10613 10612 10612 10612 10612 10611 10610 10610 10608 10608 10607 10607 10606 10605 10604 10602 10600 10598 10597 10597 10596 10595 10594 10593 10592 10591 10590 10588 10587 10585 10583 10582 10580 10578 10577 10575 10573 10571 10568 10566 10563 10561 10558 10556 10553 10552 10550 10547 10545 10543 10540 10538 10535 10532 10530 10527 10524 10522 10518 10516 10513 10510 10507 10503 10500
10630 10630 10629 10630 10631 10630 10626 10624 10625 10625 10623 10620 10618 10617 10616 10614 10612 10611 10610 10610 10608 10607 10607 10606 10606 10606 10606 10605 10605 10603 10603 10602 10602 10601 10600 10599 10597 10596 10594 10593 10592 10591 10590 10589 10588 10587 10586 10585 10584 10582 10581 10580 10578 10577 10575 10573 10571 10568 10567 10564 10562 10560 10557 10555 10552 10550 10548 10546 10544 10542 10540 10537 10535 10532 10530 10527 10524 10522 10518 10516 10513 10510 10507 10504 10502 10498
10625 10625 10623 10624 10625 10625 10622 10620 10620 10620 10618 10615 10613 10612 10611 10609 10607 10605 10605 10604 10603 10602 10601 10601 10601 10601 10601 10600 10600 10598 10598 10597 10596 10595 10595 10593 10592 10591 10590 10588 10587 10587 10585 10584 10583 10582 10582 10580 10580 10578 10577 10575 10574 10573 10571 10569 10567 10565 10562 10560 10558 10555 10553 10551 10548 10547 10545 10543 10540 10538 10536 10534 10532 10529 10527 10523 10521 10518 10515 10513 10510 10507 10505 10502 10499 10496
10621 10620 10618 10619 10620 10620 10618 10617 10617 10617 10615 10613 10610 10608 10607 10605 10603 10601 10600 10598 10598 10597 10595 10595 10595 10595 10595 10595 10594 10593 10593 10592 10591 10590 10589 10588 10587 10587 10585 10584 10583 10582 10581 10580 10578 10578 10577 10577 10575 10574 10573 10572 10570 10568 10567 10565 10563 10560 10558 10556 10554 10552 10550 10547 10545 10543 10541 10539 10537 10535 10533 10530 10528 10526 10523 10520 10518 10515 10513 10510 10507 10505 10502 10499 10496 10493
10616 10615 10614 10615 10617 10616 10614 10615 10614 10613 10611 10610 10608 10605 10603 10601 10599 10597 10595 10593 10593 10592 10590 10590 10590 10590 10590 10590 10589 10588 10587 10586 10585 10585 10584 10583 10582 10582 10581 10580 10579 10578 10577 10575 10574 10573 10573 10572 10571 10570 10568 10567 10566 10564 10562 10560 10558 10557 10554 10552 10550 10548 10546 10543 10542 10539 10537 10535 10533 10531 10529 10527 10525 10522 10520 10517 10515 10512 10510 10507 10504 10502 10499 10497 10493 10490
10611 10612 10611 10612 10612 10612 10610 10611 10610 10608 10608 10607 10604 10602 10599 10597 10595 10593 10592 10589 10588 10587 10585 10585 10584 10585 10585 10585 10584 10583 10582 10581 10580 10579 10578 10578 10578 10578 10577 10577 10575 10574 10572 10571 10570 10569 10568 10568 10567 10566 10565 10563 10562 10560 10558 10556 10554 10552 10550 10548 10546 10544 10542 10540 10538 10536 10533 10532 10530 10527 10525 10523 10521 10519 10517 10514 10512 10509 10507 10503 10501 10498 10496 10493 10491 10488
10605 10607 10607 10608 10607 10607 10607 10607 10605 10604 10604 10603 10600 10597 10594 10593 10592 10590 10587 10585 10583 10582 10581 10580 10580 10580 10580 10580 10579 10578 10577 10576 10575 10574 10573 10573 10573 10573 10573 10572 10572 10570 10568 10567 10566 10565 10564 10563 10563 10562 10560 10558 10557 10555 10553 10552 10550 10547 10545 10543 10542 10540 10538 10536 10534 10532 10530 10528 10526 10524 10522 10520 10518 10515 10513 10510 10508 10506 10503 10500 10498 10495 10493 10490 10488 10485
10600 10600 10602 10602 10602 10602 10603 10602 10601 10601 10601 10598 10595 10592 10589 10588 10587 10585 10583 10582 10580 10578 10577 10575 10575 10575 10575 10575 10575 10574 10573 10571 10570 10569 10568 10568 10568 10568 10569 10568 10567 10565 10564 10562 10561 10560 10560 10559 10558 10557 10556 10554 10553 10551 10549 10547 10545 10543 10541 10539 10537 10535 10533 10532 10530 10528 10526 10524 10522 10520 10518 10516 10514 10512 10510 10507 10505 10502 10500 10497 10495 10492 10490 10487 10485 10482
10594 10594 10595 10595 10597 10597 10597 10596 10595 10596 10597 10594 10590 10586 10584 10583 10582 10580 10578 10577 10575 10573 10572 10572 10571 10570 10570 10570 10570 10569 10568 10566 10565 10564 10563 10563 10563 10564 10564 10564 10563 10561 10560 10558 10557 10556 10555 10555 10554 10553 10552 10550 10548 10547 10544 10542 10540 10538 10537 10535 10533 10532 10530 10528 10526 10524 10522 10520 10518 10517 10515 10512 10510 10508 10506 10503 10502 10499 10497 10494 10492 10489 10487 10484 10482 10478
10587 10588 10589 10589 10590 10591 10592 10590 10589 10590 10592 10588 10584 10580 10579 10578 10577 10575 10573 10572 10570 10568 10568 10568 10567 10567 10566 10565 10565 10565 10563 10561 10560 10558 10558 10559 10559 10559 10560 10559 10558 10557 10555 10553 10552 10552 10551 10550 10550 10548 10547 10545 10543 10542 10540 10538 10536 10534 10532 10531 10529 10527 10526 10524 10522 10520 10518 10517 10515 10513 10511 10508 10507 10505 10502 10500 10498 10495 10493 10490 10488 10486 10483 10481 10478 10475
10579 10581 10583 10583 10583 10583 10585 10585 10585 10585 10585 10582 10577 10575 10573 10573 10572 10571 10569 10567 10565 10564 10563 10563 10562 10562 10562 10561 10560 10559 10558 10557 10555 10553 10553 10554 10555 10555 10555 10555 10553 10552 10550 10549 10548 10547 10547 10546 10545 10543 10542 10540 10538 10537 10535 10533 10531 10530 10528 10527 10525 10523 10522 10520 10518 10517 10515 10513 10511 10509 10507 10505 10503 10501 10499 10497 10494 10492 10490 10487 10485 10482 10480 10478 10475 10472
10571 10573 10575 10576 10576 10576 10577 10577 10578 10578 10577 10574 10571 10568 10566 10565 10565 10566 10565 10562 10560 10559 10558 10558 10557 10557 10557 10557 10555 10553 10552 10551 10550 10549 10549 10549 10550 10550 10550 10550 10548 10547 10546 10545 10543 10543 10542 10542 10540 10539 10537 10535 10533 10532 10530 10528 10527 10525 10524 10522 10521 10520 10518 10516 10514 10513 10511 10509 10507 10505 10503 10502 10499 10497 10495 10493 10491 10488 10486 10483 10482 10479 10477 10474 10472 10468
10563 10565 10567 10568 10568 10568 10568 10570 10571 10571 10569 10567 10564 10561 10559 10558 10559 10560 10560 10558 10556 10555 10554 10553 10552 10552 10552 10552 10550 10548 10547 10545 10544 10544 10545 10545 10545 10545 10545 10545 10543 10542 10542 10540 10539 10538 10537 10537 10535 10534 10532 10530 10529 10527 10525 10524 10522 10521 10520 10518 10517 10515 10514 10512 10510 10508 10507 10505 10503 10502 10500 10497 10495 10493 10492 10489 10487 10485 10482 10480 10478 10475 10473 10471 10468 10465
10555 10557 10559 10560 10561 10560 10561 10563 10563 10563 10562 10558 10556 10554 10553 10553 10554 10555 10554 10553 10550 10549 10549 10548 10547 10546 10546 10546 10545 10543 10542 10540 10540 10540 10540 10540 10540 10540 10541 10540 10538 10537 10537 10536 10534 10533 10533 10532 10530 10528 10527 10525 10524 10522 10521 10520 10518 10517 10515 10514 10513 10512 10510 10508 10507 10505 10503 10501 10499 10497 10495 10493 10492 10490 10488 10485 10483 10481 10478 10477 10474 10472 10470 10467 10465 10462
10547 10549 10551 10552 10552 10553 10554 10556 10557 10556 10553 10551 10549 10548 10548 10548 10548 10548 10548 10547 10545 10543 10543 10543 10542 10540 10540 10540 10538 10538 10537 10535 10535 10535 10535 10535 10535 10535 10536 10535 10533 10532 10532 10531 10530 10528 10527 10527 10526 10523 10522 10520 10519 10518 10516 10515 10513 10512 10511 10510 10508 10507 10505 10504 10502 10500 10498 10497 10495 10493 10492 10490 10488 10486 10483 10482 10480 10477 10475 10473 10470 10468 10466 10463 10461 10458
10541 10542 10543 10543 10544 10545 10547 10548 10549 10548 10547 10544 10542 10542 10542 10542 10542 10542 10542 10541 10539 10538 10538 10537 10536 10535 10533 10532 10532 10532 10532 10531 10530 10529 10530 10530 10529 10529 10530 10530 10528 10527 10526 10526 10525 10523 10522 10522 10520 10518 10517 10515 10514 10513 10512 10510 10509 10508 10507 10505 10504 10503 10502 10500 10498 10497 10495 10493 10491 10490 10488 10486 10484 10482 10480 10478 10476 10473 10471 10469 10467 10465 10463 10460 10457 10455
10535 10536 10537 10537 10537 10538 10539 10540 10542 10542 10539 10537 10536 10535 10535 10535 10535 10535 10536 10535 10533 10533 10532 10531 10531 10530 10527 10525 10525 10525 10527 10527 10525 10524 10524 10523 10523 10523 10524 10525 10523 10522 10520 10520 10520 10518 10517 10517 10515 10513 10512 10511 10510 10508 10507 10506 10505 10503 10502 10501 10500 10498 10497 10495 10493 10492 10490 10488 10487 10485 10483 10482 10480 10478 10476 10474 10472 10470 10467 10465 10463 10461 10459 10457 10453 10451
10528 10528 10529 10530 10530 10530 10531 10533 10533 10533 10532 10532 10530 10529 10528 10528 10529 10530 10530 10529 10528 10527 10526 10525 10525 10523 10522 10520 10518 10518 10520 10522 10520 10518 10518 10518 10517 10517 10518 10519 10518 10517 10515 10515 10513 10513 10512 10511 10510 10508 10507 10506 10505 10504 10503 10502 10500 10499 10498 10497 10495 10493 10492 10491 10489 10488 10486 10485 10483 10481 10480 10478 10475 10473 10472 10470 10468 10466 10463 10462 10459 10457 10455 10452 10450 10447
10521 10521 10522 10523 10523 10523 10524 10525 10525 10525 10525 10525 10523 10523 10523 10523 10523 10523 10524 10523 10522 10521 10520 10519 10518 10517 10517 10515 10513 10512 10514 10516 10515 10513 10512 10512 10511 10511 10512 10513 10512 10511 10510 10509 10508 10507 10507 10505 10504 10503 10502 10501 10500 10499 10498 10497 10496 10495 10493 10492 10490 10489 10488 10487 10485 10483 10482 10480 10478 10477 10475 10473 10472 10470 10468 10466 10464 10462 10460 10457 10455 10453 10451 10448 10446 10443
10513 10513 10515 10515 10515 10516 10517 10517 10517 10517 10518 10518 10518 10518 10518 10517 10517 10517 10517 10516 10515 10515 10514 10514 10513 10511 10510 10509 10508 10507 10508 10510 10509 10508 10507 10506 10505 10505 10505 10507 10507 10505 10503 10503 10502 10502 10501 10500 10499 10498 10497 10497 10495 10494 10493 10492 10491 10490 10488 10487 10486 10485 10483 10482 10480 10479 10477 10476 10474 10472 10471 10469 10467 10465 10463 10462 10460 10458 10455 10453 10452 10450 10447 10445 10442 10440
10505 10506 10506 10507 10508 10509 10508 10508 10508 10510 10511 10512 10512 10513 10512 10512 10512 10512 10510 10510 10510 10509 10508 10508 10507 10505 10505 10504 10503 10502 10502 10503 10503 10502 10500 10500 10500 10499 10499 10500 10500 10499 10498 10497 10497 10497 10496 10495 10494 10493 10492 10492 10490 10490 10488 10488 10487 10485 10483 10482 10481 10480 10478 10477 10476 10474 10473 10472 10470 10468 10467 10465 10463 10461 10460 10458 10456 10453 10452 10450 10448 10445 10443 10440 10438 10435
10496 10497 10497 10499 10501 10502 10501 10500 10500 10502 10503 10505 10506 10506 10505 10505 10505 10505 10503 10503 10503 10503 10502 10502 10500 10500 10500 10499 10497 10496 10496 10498 10497 10496 10495 10495 10493 10492 10493 10495 10495 10493 10492 10492 10491 10491 10490 10490 10488 10488 10487 10487 10485 10485 10483 10483 10482 10480 10479 10477 10477 10475 10474 10473 10471 10470 10468 10467 10465 10463 10462 10460 10458 10457 10455 10453 10452 10450 10448 10445 10443 10441 10438 10436 10434 10432
10485 10486 10488 10490 10492 10492 10492 10492 10492 10494 10496 10498 10498 10498 10498 10499 10499 10498 10497 10497 10497 10497 10496 10495 10495 10495 10494 10493 10492 10490 10490 10491 10491 10491 10490 10489 10487 10485 10487 10488 10489 10488 10487 10486 10486 10486 10485 10484 10483 10483 10482 10482 10480 10480 10479 10478 10477 10475 10474 10473 10472 10470 10469 10468 10467 10465 10463 10462 10461 10459 10457 10456 10454 10453 10451 10449 10447 10445 10443 10442 10439 10437 10435 10432 10430 10427
10473 10474 10475 10477 10478 10480 10481 10482 10483 10485 10487 10488 10490 10490 10490 10491 10492 10491 10490 10491 10491 10490 10490 10490 10489 10489 10488 10487 10486 10485 10484 10484 10485 10485 10484 10483 10481 10480 10481 10483 10483 10482 10481 10480 10481 10481 10480 10478 10478 10477 10477 10477 10475 10475 10474 10473 10472 10470 10469 10468 10467 10465 10464 10463 10462 10460 10459 10458 10456 10455 10453 10452 10450 10448 10447 10445 10443 10442 10440 10437 10435 10433 10430 10428 10425 10423
10463 10463 10464 10465 10467 10468 10470 10471 10473 10475 10477 10479 10480 10481 10482 10482 10483 10483 10483 10483 10483 10483 10483 10483 10483 10482 10480 10480 10480 10479 10477 10478 10479 10480 10478 10477 10475 10475 10475 10477 10478 10477 10476 10475 10476 10476 10475 10473 10473 10472 10472 10472 10470 10470 10469 10468 10467 10465 10463 10463 10462 10460 10459 10458 10457 10455 10454 10453 10452 10450 10448 10447 10445 10443 10442 10441 10439 10437 10435 10433 10431 10428 10426 10423 10422 10419
10456 10456 10457 10457 10458 10460 10461 10462 10463 10466 10468 10470 10471 10472 10473 10473 10474 10475 10475 10475 10475 10475 10476 10476 10475 10475 10473 10474 10474 10472 10471 10472 10473 10473 10473 10472 10470 10469 10469 10471 10473 10473 10471 10470 10470 10470 10470 10468 10467 10467 10467 10467 10465 10465 10464 10463 10462 10460 10458 10458 10457 10455 10454 10453 10452 10450 10449 10448 10447 10445 10443 10442 10441 10439 10438 10436 10435 10433 10431 10428 10427 10424 10422 10419 10417 10415
10451 10451 10451 10452 10452 10453 10454 10455 10457 10458 10460 10462 10463 10465 10465 10467 10467 10467 10467 10467 10467 10469 10470 10469 10468 10468 10468 10468 10468 10467 10466 10467 10467 10467 10467 10467 10466 10464 10463 10465 10467 10468 10466 10465 10465 10465 10465 10463 10462 10462 10462 10461 10460 10460 10458 10457 10456 10455 10453 10453 10452 10450 10449 10448 10447 10445 10444 10443 10442 10440 10439 10438 10436 10435 10433 10432 10430 10428 10427 10424 10422 10419 10417 10415 10413 10411
10446 10446 10446 10447 10447 10448 10449 10450 10451 10453 10455 10456 10457 10458 10460 10460 10461 10460 10460 10460 10462 10463 10463 10463 10463 10463 10463 10463 10462 10462 10462 10462 10462 10461 10462 10463 10462 10459 10458 10460 10462 10462 10461 10460 10459 10458 10458 10458 10458 10457 10457 10456 10455 10454 10453 10452 10451 10450 10448 10448 10447 10445 10444 10443 10442 10440 10439 10438 10437 10436 10434 10433 10432 10430 10428 10427 10425 10423 10422 10420 10417 10415 10413 10411 10409 10407
10441 10441 10441 10442 10443 10443 10444 10445 10447 10448 10449 10451 10452 10453 10453 10455 10455 10455 10453 10455 10457 10458 10457 10457 10457 10458 10458 10457 10457 10457 10457 10457 10455 10456 10457 10458 10456 10453 10453 10455 10456 10455 10455 10455 10454 10452 10452 10452 10453 10453 10452 10450 10450 10449 10448 10447 10446 10445 10443 10443 10442 10440 10439 10438 10437 10435 10434 10433 10432 10431 10430 10428 10427 10425 10424 10423 10421 10419 10417 10415 10412 10410 10408 10407 10405 10403
10435 10435 10436 10437 10438 10439 10440 10441 10442 10442 10444 10445 10446 10447 10447 10448 10449 10449 10448 10450 10452 10452 10452 10451 10452 10452 10452 10452 10453 10452 10451 10450 10450 10452 10453 10453 10450 10447 10447 10450 10450 10449 10450 10450 10449 10447 10445 10445 10447 10448 10447 10446 10445 10443 10443 10442 10441 10440 10438 10437 10437 10435 10434 10433 10432 10430 10429 10428 10427 10426 10425 10423 10422 10421 10419 10418 10416 10414 10412 10410 10408 10405 10403 10402 10400 10399
10428 10429 10430 10432 10433 10434 10435 10436 10437 10437 10438 10440 10440 10441 10442 10442 10443 10443 10444 10445 10445 10446 10446 10446 10446 10446 10447 10447 10448 10447 10445 10443 10444 10447 10448 10448 10445 10442 10442 10444 10444 10443 10443 10445 10445 10443 10440 10439 10439 10441 10442 10441 10440 10438 10437 10437 10436 10435 10433 10432 10432 10430 10428 10428 10427 10425 10424 10423 10422 10421 10420 10418 10417 10416 10415 10413 10411 10409 10407 10405 10403 10401 10399 10398 10397 10395
10422 10423 10425 10426 10427 10429 10430 10431 10431 10432 10433 10433 10435 10435 10436 10437 10437 10438 10438 10439 10440 10440 10440 10440 10440 10440 10440 10442 10442 10441 10438 10438 10438 10441 10443 10442 10440 10437 10437 10438 10439 10438 10437 10438 10439 10438 10437 10435 10433 10434 10435 10435 10434 10433 10432 10431 10430 10430 10428 10428 10427 10425 10423 10423 10422 10421 10420 10418 10417 10416 10415 10413 10413 10412 10410 10408 10407 10404 10402 10400 10398 10397 10395 10393 10392 10391
10415 10417 10419 10420 10422 10423 10424 10425 10425 10426 10427 10428 10428 10429 10430 10431 10432 10432 10433 10433 10434 10435 10435 10435 10434 10434 10435 10435 10435 10435 10433 10433 10434 10435 10437 10437 10434 10432 10431 10433 10433 10433 10432 10432 10433 10433 10432 10431 10430 10429 10429 10428 10428 10428 10427 10426 10425 10424 10423 10423 10422 10420 10418 10417 10417 10416 10415 10413 10412 10411 10410 10409 10408 10407 10405 10403 10402 10399 10397 10395 10393 10392 10391 10390 10388 10387
10407 10410 10412 10413 10415 10417 10418 10418 10419 10420 10421 10422 10422 10423 10424 10425 10426 10427 10427 10427 10428 10428 10429 10429 10429 10428 10429 10429 10429 10428 10428 10428 10429 10430 10431 10430 10428 10426 10425 10427 10427 10427 10427 10427 10427 10426 10426 10426 10425 10425 10424 10423 10422 10422 10422 10421 10420 10419 10418 10417 10417 10415 10414 10412 10412 10410 10410 10408 10407 10406 10405 10404 10403 10402 10400 10398 10396 10394 10392 10390 10389 10388 10387 10385 10384 10383
10397 10399 10402 10405 10407 10410 10411 10412 10413 10414 10415 10415 10416 10417 10418 10419 10420 10420 10421 10422 10422 10423 10423 10423 10423 10423 10423 10423 10423 10422 10422 10422 10423 10424 10425 10424 10422 10421 10421 10421 10422 10422 10422 10422 10421 10420 10420 10420 10420 10419 10418 10418 10416 10415 10415 10415 10415 10414 10413 10412 10411 10410 10409 10408 10407 10406 10405 10403 10402 10401 10400 10399 10398 10397 10395 10393 10391 10389 10387 10386 10385 10383 10382 10381 10380 10380
10387 10388 10391 10394 10397 10400 10402 10404 10405 10407 10408 10409 10410 10412 10413 10413 10414 10414 10415 10415 10416 10417 10417 10417 10417 10418 10418 10418 10418 10417 10416 10416 10417 10418 10418 10417 10417 10416 10416 10415 10415 10416 10417 10417 10415 10415 10415 10415 10414 10413 10413 10412 10411 10410 10409 10409 10409 10409 10408 10407 10406 10405 10404 10403 10402 10401 10400 10398 10397 10396 10395 10394 10393 10391 10389 10387 10386 10384 10383 10382 10380 10379 10378 10377 10376 10375
10377 10378 10381 10383 10387 10389 10392 10393 10396 10398 10400 10402 10403 10405 10407 10408 10408 10408 10408 10409 10410 10410 10410 10410 10411 10412 10412 10413 10412 10412 10411 10411 10411 10412 10411 10410 10410 10411 10411 10410 10410 10410 10411 10411 10410 10409 10409 10409 10408 10407 10407 10407 10406 10405 10405 10403 10403 10403 10402 10401 10401 10400 10399 10397 10397 10396 10395 10393 10393 10392 10390 10389 10387 10386 10384 10382 10380 10379 10378 10377 10376 10375 10374 10373 10372 10372
10368 10369 10371 10373 10376 10379 10382 10383 10385 10388 10390 10393 10395 10397 10399 10400 10401 10402 10402 10403 10403 10403 10404 10405 10405 10405 10406 10406 10406 10406 10406 10406 10405 10405 10405 10404 10405 10405 10405 10405 10404 10404 10405 10405 10405 10404 10403 10403 10403 10402 10401 10400 10400 10400 10400 10398 10398 10397 10396 10395 10395 10395 10394 10393 10392 10391 10390 10388 10388 10387 10385 10383 10382 10380 10378 10377 10375 10375 10373 10372 10372 10370 10370 10369 10368 10368
10358 10360 10362 10364 10367 10369 10372 10373 10375 10378 10380 10383 10386 10388 10390 10392 10393 10393 10395 10395 10396 10397 10397 10398 10398 10398 10399 10399 10399 10399 10399 10399 10399 10398 10398 10398 10398 10398 10399 10399 10398 10398 10398 10398 10399 10398 10398 10397 10397 10397 10396 10395 10395 10394 10393 10393 10392 10392 10391 10390 10389 10388 10388 10388 10387 10386 10385 10383 10383 10382 10380 10378 10377 10375 10373 10372 10371 10370 10369 10368 10367 10367 10366 10365 10365 10364
10350 10352 10353 10355 10357 10360 10362 10364 10366 10368 10371 10374 10377 10378 10380 10382 10383 10385 10386 10387 10388 10389 10390 10390 10391 10392 10392 10392 10392 10392 10392 10392 10392 10392 10392 10392 10392 10392 10393 10393 10393 10392 10392 10392 10392 10392 10392 10392 10392 10391 10390 10390 10390 10389 10388 10387 10387 10386 10386 10385 10383 10382 10382 10382 10382 10380 10380 10378 10377 10376 10374 10373 10371 10370 10368 10367 10366 10365 10364 10363 10363 10362 10362 10361 10361 10360
10343 10344 10346 10347 10349 10352 10353 10355 10357 10360 10362 10365 10367 10369 10370 10372 10373 10375 10376 10378 10379 10381 10382 10383 10383 10384 10385 10385 10385 10385 10385 10385 10385 10385 10385 10385 10386 10386 10386 10387 10387 10387 10387 10387 10386 10386 10386 10386 10386 10385 10385 10385 10384 10383 10383 10382 10381 10380 10380 10380 10378 10377 10377 10377 10376 10375 10375 10373 10372 10370 10369 10367 10365 10364 10363 10362 10362 10361 10360 10360 10359 10358 10358 10357 10357 10357
10335 10337 10338 10340 10342 10343 10345 10347 10349 10351 10353 10356 10358 10359 10360 10362 10364 10366 10367 10368 10370 10371 10372 10374 10375 10376 10377 10376 10377 10377 10377 10378 10378 10378 10378 10378 10379 10380 10380 10380 10380 10380 10380 10380 10380 10380 10380 10380 10380 10380 10379 10379 10378 10378 10377 10375 10375 10375 10375 10374 10373 10372 10372 10370 10370 10370 10370 10368 10366 10365 10363 10362 10360 10359 10358 10358 10357 10356 10355 10355 10355 10354 10353 10353 10353 10353
10326 10328 10330 10332 10334 10336 10337 10339 10341 10343 10345 10347 10348 10350 10351 10353 10355 10357 10358 10360 10361 10362 10363 10365 10367 10368 10368 10368 10368 10368 10369 10370 10371 10371 10372 10372 10372 10373 10373 10373 10374 10374 10374 10375 10375 10374 10373 10374 10375 10374 10373 10373 10373 10372 10371 10370 10369 10369 10368 10368 10368 10367 10367 10365 10364 10364 10363 10362 10360 10359 10358 10357 10355 10355 10354 10353 10353 10352 10352 10351 10350 10350 10350 10350 10349 10349
10317 10320 10322 10324 10326 10328 10330 10332 10333 10334 10336 10338 10339 10341 10342 10344 10347 10348 10350 10351 10352 10353 10355 10357 10358 10360 10360 10360 10360 10360 10361 10362 10363 10364 10365 10365 10365 10366 10367 10367 10367 10367 10368 10368 10368 10368 10368 10368 10368 10368 10368 10368 10368 10367 10365 10365 10363 10363 10363 10362 10362 10362 10361 10360 10359 10358 10357 10355 10354 10353 10352 10352 10351 10350 10350 10349 10348 10348 10347 10347 10347 10346 10346 10346 10346 10345
10310 10312 10313 10315 10317 10319 10321 10322 10323 10325 10328 10330 10331 10332 10334 10336 10338 10340 10342 10342 10343 10345 10347 10348 10350 10352 10352 10352 10352 10352 10353 10355 10355 10356 10357 10358 10358 10359 10360 10360 10361 10361 10362 10362 10362 10362 10362 10362 10362 10361 10362 10362 10362 10361 10360 10359 10358 10358 10357 10357 10357 10356 10355 10355 10353 10352 10351 10350 10348 10348 10347 10347 10346 10345 10345 10344 10343 10343 10343 10343 10343 10342 10342 10342 10342 10342
10302 10303 10305 10307 10308 10310 10312 10313 10315 10317 10320 10321 10323 10324 10325 10327 10329 10331 10333 10334 10335 10337 10338 10340 10342 10343 10343 10343 10343 10345 10347 10347 10347 10348 10349 10350 10352 10352 10353 10353 10354 10355 10355 10355 10355 10356 10356 10356 10356 10355 10355 10355 10355 10354 10354 10353 10353 10352 10352 10351 10351 10350 10350 10348 10347 10346 10345 10344 10343 10342 10342 10342 10342 10341 10340 10340 10340 10339 10339 10339 10338 10338 10338 10338 10338 10338
10293 10295 10297 10298 10300 10302 10303 10305 10307 10309 10311 10312 10314 10315 10317 10319 10321 10322 10323 10325 10327 10329 10330 10332 10333 10335 10335 10335 10336 10338 10339 10340 10340 10340 10342 10343 10344 10345 10346 10347 10347 10348 10348 10349 10350 10350 10350 10350 10350 10350 10350 10349 10348 10348 10348 10348 10348 10347 10346 10345 10345 10344 10343 10342 10341 10340 10340 10338 10338 10337 10337 10337 10337 10336 10335 10335 10335 10335 10335 10335 10335 10335 10335 10335 10335 10335
10286 10288 10289 10291 10293 10295 10296 10298 10300 10302 10303 10304 10305 10307 10309 10310 10312 10314 10315 10317 10319 10321 10323 10324 10325 10326 10327 10327 10328 10330 10332 10332 10332 10333 10334 10335 10337 10338 10338 10339 10340 10341 10342 10342 10343 10343 10343 10344 10344 10344 10343 10343 10343 10342 10342 10342 10342 10342 10340 10340 10339 10338 10337 10336 10335 10335 10334 10333 10333 10332 10332 10332 10332 10332 10331 10331 10331 10331 10331 10331 10331 10331 10331 10331 10331 10332
10278 10280 10282 10283 10285 10287 10288 10290 10292 10293 10295 10296 10297 10299 10300 10302 10304 10306 10307 10308 10311 10313 10314 10315 10317 10317 10318 10320 10321 10322 10324 10325 10325 10326 10327 10328 10330 10330 10332 10332 10333 10334 10335 10335 10337 10337 10337 10337 10337 10337 10338 10338 10338 10337 10336 10336 10335 10335 10335 10334 10333 10332 10331 10330 10330 10329 10328 10328 10328 10327 10327 10327 10327 10327 10327 10327 10327 10327 10327 10327 10327 10327 10327 10327 10328 10328
10271 10273 10275 10277 10278 10280 10281 10283 10285 10286 10287 10288 10290 10292 10293 10295 10297 10298 10300 10301 10303 10305 10306 10307 10308 10310 10311 10312 10313 10315 10316 10317 10318 10319 10320 10321 10322 10323 10325 10325 10327 10327 10328 10328 10329 10330 10330 10330 10330 10330 10331 10332 10332 10332 10331 10330 10330 10329 10328 10328 10327 10327 10325 10325 10324 10324 10323 10323 10323 10323 10323 10323 10323 10323 10323 10323 10322 10323 10323 10323 10323 10323 10323 10324 10324 10324
10263 10265 10267 10269 10271 10272 10274 10276 10277 10279 10280 10282 10283 10285 10286 10287 10289 10290 10292 10293 10295 10297 10298 10299 10300 10302 10303 10305 10306 10307 10308 10310 10311 10312 10313 10314 10315 10317 10318 10318 10320 10321 10322 10322 10322 10323 10323 10324 10324 10323 10324 10325 10327 10327 10326 10325 10323 10323 10322 10321 10321 10321 10320 10320 10319 10319 10318 10318 10318 10318 10318 10318 10318 10318 10318 10318 10318 10318 10318 10319 10319 10320 10320 10320 10321 10321